Fort Morgan, CO

4:28 AM MDT on May 25, 2017 (GMT -0600)
Fort Morgan

Weather History for KFMM - February, 2013

Change the Weather History Date:

Saturday, February 16, 2013

  Actual Average (KAKO) Record (KAKO)
Temperature  
Mean Temperature 36 °F -  
Max Temperature 58 °F 42 °F 73 °F (2017)
Min Temperature 15 °F 19 °F -9 °F (1993)
Degree Days  
Heating Degree Days 28    
Moisture  
Dew Point 15 °F    
Average Humidity 53    
Maximum Humidity 89    
Minimum Humidity 15    
Precipitation  
Precipitation 0.00 in - - ()
Sea Level Pressure  
Sea Level Pressure 30.07 in    
Wind  
Wind Speed 8 mph (West)    
Max Wind Speed 16 mph    
Max Gust Speed 26 mph    
Visibility 10 miles    
Events      
Averages and records for this station are not official NWS values.
T = Trace of Precipitation, MM = Missing Value Source: NWS Daily Summary

Daily Weather History Graph

Daily Weather History Graph

Search for Another Location

Airport or City:

Trip Planner

Search our weather history database for the weather conditions in past years. The results will help you decide how hot, cold, wet, or windy it might be!

Date:

Astronomy

Feb. 16, 2013 Rise Set
Actual Time 6:46 AM MST 5:32 PM MST
Civil Twilight 6:19 AM MST 6:00 PM MST
Nautical Twilight 5:47 AM MST 6:31 PM MST
Astronomical Twilight 5:15 AM MST 7:03 PM MST
Moon 10:00 AM MST (2/16) No Moon Set
Length of Visible Light 11h 41m
Length of Day
10h 45m
Waxing Crescent, 40% of the Moon is Illuminated
Feb 16
Waxing Crescent
Feb 17
First Quarter
Feb 25
Full
Mar 4
Last Quarter
Mar 11
New

Hourly Weather History & Observations

Time (MST) Temp. Windchill Dew Point Humidity Pressure Visibility Wind Dir Wind Speed Gust Speed Precip Events Conditions
12:15 AM 21.9 °F 15.7 °F 16.0 °F 78% 30.21 in 10.0 mi WSW 4.6 mph - N/A   Mostly Cloudy
12:35 AM 21.4 °F 13.8 °F 16.2 °F 80% 30.21 in 10.0 mi WSW 5.8 mph - N/A   Overcast
12:55 AM 19.4 °F 9.5 °F 15.1 °F 83% 30.21 in 10.0 mi WSW 8.1 mph - N/A   Scattered Clouds
1:15 AM 18.3 °F 8.2 °F 14.7 °F 86% 30.20 in 10.0 mi West 8.1 mph - N/A   Clear
1:35 AM 18.5 °F 10.4 °F 14.9 °F 86% 30.19 in 10.0 mi WSW 5.8 mph - N/A   Clear
1:55 AM 19.0 °F 9.0 °F 15.8 °F 87% 30.18 in 10.0 mi WSW 8.1 mph - N/A   Clear
2:15 AM 18.9 °F 8.8 °F 15.4 °F 87% 30.17 in 10.0 mi WSW 8.1 mph - N/A   Clear
2:35 AM 18.3 °F 8.2 °F 14.7 °F 86% 30.17 in 10.0 mi WSW 8.1 mph - N/A   Clear
2:55 AM 16.7 °F 7.2 °F 13.3 °F 86% 30.17 in 10.0 mi WSW 6.9 mph - N/A   Clear
3:15 AM 16.3 °F 5.7 °F 13.6 °F 89% 30.16 in 10.0 mi WSW 8.1 mph - N/A   Clear
3:55 AM 17.4 °F 7.1 °F 14.4 °F 88% 30.15 in 10.0 mi West 8.1 mph - N/A   Clear
4:15 AM 16.5 °F 6.0 °F 13.5 °F 88% 30.14 in 10.0 mi West 8.1 mph - N/A   Clear
4:35 AM 18.0 °F 7.7 °F 14.5 °F 86% 30.14 in 10.0 mi West 8.1 mph - N/A   Clear
4:55 AM 17.2 °F 7.8 °F 13.8 °F 86% 30.15 in 10.0 mi West 6.9 mph - N/A   Clear
5:15 AM 16.7 °F 5.3 °F 14.0 °F 89% 30.14 in 10.0 mi West 9.2 mph - N/A   Clear
5:35 AM 16.3 °F 4.1 °F 13.6 °F 89% 30.14 in 10.0 mi West 10.4 mph - N/A   Clear
5:55 AM 17.1 °F 5.8 °F 14.2 °F 88% 30.14 in 10.0 mi West 9.2 mph - N/A   Clear
6:15 AM 16.5 °F 6.0 °F 13.1 °F 86% 30.13 in 10.0 mi WSW 8.1 mph - N/A   Clear
6:35 AM 15.8 °F 4.2 °F 12.9 °F 88% 30.14 in 10.0 mi WSW 9.2 mph - N/A   Clear
6:55 AM 15.1 °F 3.3 °F 12.4 °F 89% 30.14 in 10.0 mi West 9.2 mph - N/A   Clear
7:15 AM 18.3 °F 6.6 °F 15.1 °F 87% 30.14 in 10.0 mi West 10.4 mph - N/A   Clear
7:35 AM 22.5 °F 12.4 °F 17.6 °F 82% 30.14 in 10.0 mi West 9.2 mph - N/A   Clear
7:55 AM 26.1 °F 19.4 °F 20.3 °F 79% 30.14 in 10.0 mi West 5.8 mph - N/A   Clear
8:15 AM 30.2 °F 23.4 °F 21.4 °F 70% 30.14 in 10.0 mi West 6.9 mph - N/A   Clear
8:35 AM 29.3 °F 20.8 °F 21.7 °F 73% 30.14 in 10.0 mi WSW 9.2 mph - N/A   Clear
11:15 AM 52.0 °F - 17.8 °F 26% 30.11 in 10.0 mi West 13.8 mph 19.6 mph N/A   Clear
11:35 AM 54.0 °F - 17.6 °F 24% 30.11 in 10.0 mi West 9.2 mph 19.6 mph N/A   Clear
11:55 AM 54.3 °F - 16.7 °F 23% 30.09 in 10.0 mi West 9.2 mph - N/A   Clear
12:15 PM 55.4 °F - 15.1 °F 20% 30.08 in 10.0 mi West 13.8 mph 23.0 mph N/A   Clear
12:35 PM 55.4 °F - 14.4 °F 20% 30.07 in 10.0 mi West 11.5 mph 20.7 mph N/A   Clear
12:55 PM 56.3 °F - 14.0 °F 19% 30.06 in 10.0 mi West 12.7 mph 24.2 mph N/A   Clear
1:15 PM 56.7 °F - 13.6 °F 18% 30.05 in 10.0 mi NW 11.5 mph 26.5 mph N/A   Clear
1:35 PM 58.1 °F - 13.6 °F 17% 30.04 in 10.0 mi West 16.1 mph 21.9 mph N/A   Clear
1:55 PM 57.9 °F - 13.3 °F 17% 30.03 in 10.0 mi WSW 15.0 mph 20.7 mph N/A   Clear
2:15 PM 58.1 °F - 12.9 °F 17% 30.03 in 10.0 mi West 12.7 mph 19.6 mph N/A   Clear
2:35 PM 57.9 °F - 11.7 °F 16% 30.03 in 10.0 mi West 10.4 mph 20.7 mph N/A   Clear
2:55 PM 57.6 °F - 11.1 °F 16% 30.03 in 10.0 mi West 12.7 mph 18.4 mph N/A   Clear
3:15 PM 57.9 °F - 10.8 °F 15% 30.02 in 10.0 mi West 13.8 mph - N/A   Clear
3:35 PM 57.9 °F - 10.4 °F 15% 30.02 in 10.0 mi WSW 12.7 mph 17.3 mph N/A   Clear
3:55 PM 58.1 °F - 10.4 °F 15% 30.02 in 10.0 mi West 9.2 mph - N/A   Clear
4:15 PM 57.4 °F - 10.4 °F 16% 30.02 in 10.0 mi NW 8.1 mph - N/A   Clear
4:35 PM 55.9 °F - 15.4 °F 20% 30.01 in 10.0 mi North 8.1 mph - N/A   Clear
4:55 PM 52.7 °F - 14.0 °F 22% 30.01 in 10.0 mi North 8.1 mph - N/A   Clear
5:15 PM 47.8 °F - 13.8 °F 26% 30.01 in 10.0 mi North 8.1 mph - N/A   Clear
5:35 PM 43.9 °F 38.3 °F 14.0 °F 30% 30.01 in 10.0 mi North 10.4 mph - N/A   Clear
5:55 PM 43.0 °F 36.4 °F 15.6 °F 33% 30.01 in 10.0 mi North 12.7 mph - N/A   Clear
6:15 PM 40.8 °F 35.0 °F 14.7 °F 35% 30.01 in 10.0 mi NE 9.2 mph - N/A   Clear
6:35 PM 39.6 °F 34.7 °F 14.0 °F 35% 30.01 in 10.0 mi NE 6.9 mph - N/A   Clear
6:55 PM 35.1 °F 28.6 °F 14.7 °F 43% 30.01 in 10.0 mi NNE 8.1 mph - N/A   Clear
7:15 PM 35.1 °F 30.1 °F 14.5 °F 43% 30.01 in 10.0 mi SSE 5.8 mph - N/A   Clear
7:35 PM 34.2 °F - 14.7 °F 45% 30.01 in 10.0 mi Calm Calm - N/A   Clear
7:55 PM 39.6 °F 35.4 °F 15.4 °F 38% 30.00 in 10.0 mi NE 5.8 mph - N/A   Clear
8:15 PM 37.4 °F 34.9 °F 15.6 °F 41% 30.00 in 10.0 mi East 3.5 mph - N/A   Clear
8:35 PM 30.6 °F 23.8 °F 13.8 °F 50% 30.00 in 10.0 mi South 6.9 mph 16.1 mph N/A   Clear
8:55 PM 33.3 °F 27.9 °F 15.3 °F 48% 30.00 in 10.0 mi South 5.8 mph - N/A   Clear
9:15 PM 34.2 °F - 15.6 °F 47% 30.00 in 10.0 mi Calm Calm - N/A   Clear
9:35 PM 34.7 °F 31.8 °F 15.6 °F 46% 30.00 in 10.0 mi SSW 3.5 mph - N/A   Clear
9:55 PM 34.2 °F - 15.8 °F 47% 29.98 in 10.0 mi Calm Calm - N/A   Clear
10:15 PM 34.7 °F 30.6 °F 15.3 °F 45% 29.97 in 10.0 mi East 4.6 mph - N/A   Clear
10:35 PM 33.6 °F 28.4 °F 15.8 °F 48% 29.98 in 10.0 mi South 5.8 mph - N/A   Clear
10:55 PM 29.5 °F 24.5 °F 14.4 °F 53% 29.98 in 10.0 mi West 4.6 mph - N/A   Clear
11:15 PM 25.3 °F 18.5 °F 14.2 °F 63% 29.97 in 10.0 mi WNW 5.8 mph - N/A   Clear
11:35 PM 28.9 °F 23.9 °F 15.1 °F 56% 29.96 in 10.0 mi West 4.6 mph - N/A   Clear
11:55 PM 30.9 °F 25.2 °F 15.6 °F 53% 29.96 in 10.0 mi WSW 5.8 mph - N/A   Clear